{"data":{"norad_id":46329,"epoch":"2026-08-22T23:47:45.739104Z","epoch_age_seconds":2485158,"freshness":"OLD","line1":"1 46329U 20062E   26234.99150161  .07563068  12338-4  74262-3 0  9993","line2":"2 46329  53.0121 227.3495 0003701 315.5539  44.5208 16.37479547331083","mean_motion":16.37479547,"eccentricity":0.0003701,"inclination_deg":53.0121,"raan_deg":227.3495,"arg_perigee_deg":315.5539,"mean_anomaly_deg":44.5208,"bstar":0.00074262,"rev_number":33108,"period_min":87.940029702246,"perigee_km":170.09146107987,"apogee_km":174.94025432514,"semimajor_km":6550.6528577025,"source":"CELESTRAK","updated_at":"2026-08-23T09:00:35.085824Z"}}